This is the latest recevied weather packets stored in our database for station/object N3LF. If no packets are shown the sender has not sent any weather packets the latest 1 day(s).
| Time | Temp. | Humidity | Pressure | Rain* | Wind** | Luminosity | Snow |
|---|---|---|---|---|---|---|---|
| 1778063322 | 10.56° C | 99% | 1013.1 hPa | 0 mm | - | 0 W/m² | - |
| 1778063020 | 10° C | 99% | 1013.4 hPa | 0 mm | - | 0 W/m² | - |
| 1778062717 | 10° C | 99% | 1013 hPa | 0 mm | - | 0 W/m² | - |
| 1778062111 | 10.56° C | 99% | 1012.6 hPa | 0 mm | - | 0 W/m² | - |
| 1778060901 | 10.56° C | 99% | 1012.3 hPa | 0 mm | - | 0 W/m² | - |
| 1778059994 | 10.56° C | 99% | 1012.1 hPa | 0 mm | - | 0 W/m² | - |
| 1778058784 | 10.56° C | 99% | 1012.6 hPa | 0 mm | - | 0 W/m² | - |
| 1778058482 | 10.56° C | 99% | 1012.6 hPa | 0 mm | - | 0 W/m² | - |
| 1778057875 | 10.56° C | 99% | 1012.6 hPa | 0 mm | - | 0 W/m² | - |
| 1778056056 | 10.56° C | 99% | 1012.3 hPa | 0 mm | - | 0 W/m² | - |
| 1778055752 | 10.56° C | 99% | 1012.3 hPa | 1.78 mm | - | 0 W/m² | - |
| 1778055450 | 10.56° C | 99% | 1012.2 hPa | 4.83 mm | - | 0 W/m² | - |
| 1778055147 | 11.11° C | 99% | 1012.7 hPa | 1.78 mm | - | 0 W/m² | - |
| 1778054845 | 11.11° C | 99% | 1012 hPa | 0 mm | - | 0 W/m² | - |
| 1778054541 | 11.11° C | 99% | 1011.8 hPa | 0 mm | - | 0 W/m² | - |
| 1778054239 | 11.11° C | 99% | 1011.5 hPa | 0 mm | - | 0 W/m² | - |
| 1778053634 | 11.11° C | 99% | 1011.2 hPa | 0 mm | - | 0 W/m² | - |
| 1778053028 | 11.11° C | 99% | 1011 hPa | 0 mm | - | 0 W/m² | - |
| 1778052422 | 11.67° C | 99% | 1011 hPa | 0 mm | - | 0 W/m² | - |
| 1778052120 | 11.67° C | 99% | 1010.6 hPa | 0 mm | - | 0 W/m² | - |
| 1778051817 | 12.22° C | 99% | 1010.5 hPa | 0 mm | - | 0 W/m² | - |
| 1778051515 | 12.22° C | 99% | 1010.2 hPa | 0 mm | - | 0 W/m² | - |
| 1778051211 | 12.22° C | 99% | 1010 hPa | 0 mm | - | 0 W/m² | - |
| 1778050000 | 13.89° C | 99% | 1010.2 hPa | 0 mm | - | 0 W/m² | - |
| 1778049394 | 15° C | 99% | 1009.7 hPa | 3.05 mm | - | 0 W/m² | - |
* Rain latest hour (hover to see other rain measurements)
** Current wind speed in m/s (hover to see current wind gust speed)